Back to catalog

IRIDIUM 103

AliveCommunicationsPO
NORAD 41918·PAYLOAD·🇺🇸 United States

Launched Jan 14, 2017 from Vandenberg Space Force Base

Loading…

Next Passes (next 24 hours)

TLE

FreshSource: CelesTrak SupGP

Epoch: Sep 14, 2026, 12:14 UTC

1 41918C 17003B   26257.51006944 -.00005846  00000+0 -20901-2 0  2570
2 41918  86.3947  51.0796 0002379  91.6564 186.0619 14.34223224    11

Track IRIDIUM 103 in real time with AllMySat

Download on the App Store